When you browse on this site, cookies collect data to enhance your experience and personalize the content and advertising you see.
Visit our Privacy Policy to learn more. By continuing to use the site, you agree to this use of cookies and data.
  • In Schweiz
  • Länderverzeichnis
  • Für 7 Tage
  • Wassertemperatur
  • Satellitenkarten
  • Wetterkarte
  • Widgets
  • user-avatar
    Anmelden

    Stündliche Wetter Lankaran

    Heute, 23 März, Samstag

    Zeit Temperatur Niederschläge Wind Luftdruck Luftfeuchtigkeit
    00:00 +1°C° 0 mm 0 m/S 632 mmHg 85%
    01:00 +1°C° 0 mm 0 m/S 632 mmHg 86%
    02:00 0°C° 0 mm 0 m/S 632 mmHg 87%
    03:00 0°C° 0 mm 0 m/S 632 mmHg 91%
    04:00 0°C° 0 mm 0 m/S 632 mmHg 91%
    05:00 0°C° 0 mm 0 m/S 631 mmHg 91%
    06:00 0°C° 0 mm 0 m/S 631 mmHg 91%
    07:00 +2°C° 0 mm 1 m/S 632 mmHg 82%
    08:00 +4°C° 0 mm 1 m/S 632 mmHg 74%
    09:00 +4°C° 0 mm 2 m/S 632 mmHg 65%
    10:00 +5°C° 0 mm 2 m/S 632 mmHg 60%
    11:00 +7°C° 0 mm 2 m/S 632 mmHg 55%
    12:00 +8°C° 0 mm 2 m/S 632 mmHg 50%
    13:00 +8°C° 0 mm 3 m/S 632 mmHg 48%
    14:00 +8°C° 0 mm 3 m/S 631 mmHg 47%
    15:00 +9°C° 0 mm 3 m/S 631 mmHg 46%
    16:00 +8°C° 0 mm 2 m/S 630 mmHg 50%
    17:00 +7°C° 0 mm 2 m/S 630 mmHg 54%
    18:00 +6°C° 0 mm 2 m/S 630 mmHg 58%
    19:00 +5°C° 0 mm 2 m/S 630 mmHg 57%
    20:00 +5°C° 0 mm 2 m/S 629 mmHg 56%
    21:00 +5°C° 0 mm 2 m/S 629 mmHg 56%
    22:00 +5°C° 0 mm 2 m/S 629 mmHg 56%
    23:00 +4°C° 0 mm 2 m/S 629 mmHg 56%

    Morgen, 24 März, Sonntag

    Zeit Temperatur Niederschläge Wind Luftdruck Luftfeuchtigkeit
    00:00 +4°C° 0 mm 2 m/S 629 mmHg 56%
    01:00 +4°C° 0 mm 2 m/S 629 mmHg 57%
    02:00 +4°C° 0 mm 2 m/S 628 mmHg 58%
    03:00 +4°C° 0 mm 2 m/S 628 mmHg 59%
    04:00 +3°C° 0 mm 2 m/S 628 mmHg 60%
    05:00 +2°C° 0 mm 3 m/S 628 mmHg 61%
    06:00 +2°C° 0 mm 3 m/S 628 mmHg 62%
    07:00 +4°C° 0 mm 3 m/S 629 mmHg 56%
    08:00 +7°C° 0 mm 3 m/S 629 mmHg 50%
    09:00 +8°C° 0 mm 3 m/S 630 mmHg 45%
    10:00 +8°C° 0 mm 4 m/S 630 mmHg 44%
    11:00 +10°C° 0 mm 4 m/S 630 mmHg 43%
    12:00 +11°C° 0 mm 4 m/S 630 mmHg 42%
    13:00 +10°C° 0 mm 4 m/S 630 mmHg 47%
    14:00 +8°C° 0 mm 4 m/S 629 mmHg 52%
    15:00 +7°C° 0 mm 4 m/S 629 mmHg 58%
    16:00 +6°C° 0.1 mm 4 m/S 628 mmHg 66%
    17:00 +4°C° 0.1 mm 4 m/S 628 mmHg 74%
    18:00 +3°C° 0.1 mm 4 m/S 628 mmHg 83%
    19:00 +1°C° 0.4 mm 4 m/S 628 mmHg 86%
    20:00 0°C° 0.4 mm 4 m/S 628 mmHg 89%
    21:00 +1°C° 0.4 mm 3 m/S 628 mmHg 92%
    22:00 0°C° 0.6 mm 3 m/S 628 mmHg 92%
    23:00 0°C° 0.6 mm 3 m/S 627 mmHg 93%

    übermorgen, 25 März, Montag

    Zeit Temperatur Niederschläge Wind Luftdruck Luftfeuchtigkeit
    00:00 0°C° 0.6 mm 3 m/S 627 mmHg 93%
    01:00 -1°C° 0.4 mm 3 m/S 627 mmHg 93%
    02:00 -2°C° 0.4 mm 4 m/S 627 mmHg 93%
    03:00 -2°C° 0.4 mm 4 m/S 627 mmHg 93%
    04:00 -2°C° 0.4 mm 4 m/S 627 mmHg 93%
    05:00 -3°C° 0.4 mm 4 m/S 627 mmHg 92%
    06:00 -4°C° 0.4 mm 5 m/S 627 mmHg 92%
    07:00 -3°C° 1.3 mm 4 m/S 627 mmHg 92%
    08:00 -3°C° 1.3 mm 4 m/S 627 mmHg 91%
    09:00 -4°C° 1.3 mm 4 m/S 627 mmHg 91%
    10:00 -4°C° 1 mm 4 m/S 627 mmHg 91%
    11:00 -5°C° 1 mm 5 m/S 627 mmHg 91%
    12:00 -5°C° 1 mm 5 m/S 627 mmHg 91%
    13:00 -4°C° 1.1 mm 4 m/S 627 mmHg 91%
    14:00 -4°C° 1.1 mm 4 m/S 627 mmHg 91%
    15:00 -4°C° 1.1 mm 4 m/S 626 mmHg 92%
    16:00 -4°C° 0.9 mm 4 m/S 627 mmHg 91%
    17:00 -4°C° 0.9 mm 3 m/S 627 mmHg 91%
    18:00 -4°C° 0.9 mm 3 m/S 627 mmHg 91%
    19:00 -3°C° 0.2 mm 2 m/S 628 mmHg 91%
    20:00 -4°C° 0.2 mm 2 m/S 628 mmHg 91%
    21:00 -4°C° 0.2 mm 2 m/S 628 mmHg 91%
    22:00 -3°C° 0 mm 2 m/S 628 mmHg 92%
    23:00 -3°C° 0 mm 2 m/S 628 mmHg 92%

    26 März, Dienstag

    Zeit Temperatur Niederschläge Wind Luftdruck Luftfeuchtigkeit
    00:00 -1°C° 0 mm 1 m/S 628 mmHg 93%
    01:00 -1°C° 0 mm 1 m/S 628 mmHg 93%
    02:00 -1°C° 0 mm 1 m/S 628 mmHg 93%
    03:00 -1°C° 0 mm 1 m/S 628 mmHg 93%
    04:00 -1°C° 0 mm 1 m/S 629 mmHg 94%
    05:00 -1°C° 0 mm 1 m/S 629 mmHg 94%
    06:00 -3°C° 0 mm 2 m/S 629 mmHg 94%
    07:00 -2°C° 0 mm 2 m/S 629 mmHg 93%
    08:00 -2°C° 0 mm 2 m/S 629 mmHg 91%
    09:00 -1°C° 0 mm 2 m/S 630 mmHg 89%
    10:00 -1°C° 0 mm 2 m/S 630 mmHg 89%
    11:00 -1°C° 0 mm 2 m/S 629 mmHg 89%
    12:00 -1°C° 0 mm 3 m/S 629 mmHg 89%
    13:00 -1°C° 0 mm 3 m/S 629 mmHg 88%
    14:00 -1°C° 0 mm 3 m/S 629 mmHg 88%
    15:00 0°C° 0 mm 3 m/S 629 mmHg 87%
    16:00 -1°C° 0 mm 2 m/S 628 mmHg 87%
    17:00 -1°C° 0 mm 2 m/S 628 mmHg 88%
    18:00 -1°C° 0 mm 2 m/S 628 mmHg 89%
    19:00 0°C° 0.3 mm 1 m/S 628 mmHg 90%
    20:00 0°C° 0.3 mm 1 m/S 628 mmHg 90%
    21:00 0°C° 0.3 mm 1 m/S 628 mmHg 91%
    22:00 0°C° 0.3 mm 1 m/S 628 mmHg 90%
    23:00 0°C° 0.3 mm 1 m/S 628 mmHg 89%

    27 März, Mittwoch

    Zeit Temperatur Niederschläge Wind Luftdruck Luftfeuchtigkeit
    00:00 0°C° 0.3 mm 1 m/S 628 mmHg 88%
    01:00 0°C° 0 mm 1 m/S 628 mmHg 87%
    02:00 0°C° 0 mm 1 m/S 627 mmHg 86%
    03:00 -1°C° 0 mm 1 m/S 627 mmHg 86%
    04:00 0°C° 0.1 mm 1 m/S 627 mmHg 85%
    05:00 0°C° 0.1 mm 1 m/S 627 mmHg 84%
    06:00 0°C° 0.1 mm 1 m/S 627 mmHg 84%
    07:00 +1°C° 0.2 mm 1 m/S 628 mmHg 83%
    08:00 +2°C° 0.2 mm 1 m/S 628 mmHg 82%
    09:00 +2°C° 0.2 mm 2 m/S 629 mmHg 81%
    10:00 +3°C° 0.2 mm 2 m/S 629 mmHg 78%
    11:00 +4°C° 0.2 mm 2 m/S 629 mmHg 75%
    12:00 +5°C° 0.2 mm 2 m/S 629 mmHg 72%
    13:00 +5°C° 0.1 mm 2 m/S 629 mmHg 71%
    14:00 +5°C° 0.1 mm 2 m/S 629 mmHg 70%
    15:00 +6°C° 0.1 mm 2 m/S 630 mmHg 68%
    16:00 +6°C° 0 mm 1 m/S 630 mmHg 70%
    17:00 +5°C° 0 mm 1 m/S 630 mmHg 71%
    18:00 +4°C° 0 mm 1 m/S 630 mmHg 72%
    19:00 +4°C° 0 mm 1 m/S 630 mmHg 72%
    20:00 +3°C° 0 mm 1 m/S 630 mmHg 71%
    21:00 +3°C° 0 mm 1 m/S 631 mmHg 71%
    22:00 +3°C° 0 mm 1 m/S 631 mmHg 71%
    23:00 +3°C° 0 mm 1 m/S 631 mmHg 71%

    28 März, Donnerstag

    Zeit Temperatur Niederschläge Wind Luftdruck Luftfeuchtigkeit
    00:00 +3°C° 0 mm 1 m/S 631 mmHg 71%
    01:00 +3°C° 0 mm 1 m/S 631 mmHg 72%
    02:00 +2°C° 0 mm 1 m/S 631 mmHg 73%
    03:00 +2°C° 0 mm 1 m/S 631 mmHg 74%
    04:00 +2°C° 0 mm 1 m/S 631 mmHg 76%
    05:00 +2°C° 0 mm 1 m/S 631 mmHg 78%
    06:00 +1°C° 0 mm 1 m/S 632 mmHg 80%
    07:00 +3°C° 0 mm 1 m/S 632 mmHg 78%
    08:00 +3°C° 0 mm 2 m/S 633 mmHg 75%
    09:00 +4°C° 0 mm 2 m/S 633 mmHg 73%
    10:00 +4°C° 0 mm 2 m/S 633 mmHg 71%
    11:00 +5°C° 0 mm 2 m/S 633 mmHg 69%
    12:00 +5°C° 0 mm 2 m/S 633 mmHg 67%
    13:00 +5°C° 0 mm 2 m/S 633 mmHg 67%
    14:00 +5°C° 0 mm 2 m/S 632 mmHg 68%
    15:00 +5°C° 0 mm 2 m/S 632 mmHg 68%
    16:00 +5°C° 0.1 mm 2 m/S 632 mmHg 70%
    17:00 +4°C° 0.1 mm 2 m/S 632 mmHg 73%
    18:00 +3°C° 0.1 mm 2 m/S 631 mmHg 75%
    19:00 +3°C° 0 mm 2 m/S 632 mmHg 75%
    20:00 +3°C° 0 mm 2 m/S 632 mmHg 75%
    21:00 +3°C° 0 mm 2 m/S 632 mmHg 76%
    22:00 +3°C° 0 mm 2 m/S 632 mmHg 74%
    23:00 +3°C° 0 mm 2 m/S 631 mmHg 73%
    Mehr zeigen